Boston, MA

4:42 PM EDT on April 26, 2017 (GMT -0400)
Logan International

Weather History for KBOS - February, 2014

Change the Weather History Date:

Sunday, February 16, 2014

  Actual Average Record
Temperature  
Mean Temperature 28 °F 32 °F  
Max Temperature 33 °F 39 °F 60 °F (1910)
Min Temperature 23 °F 25 °F -9 °F (1943)
Degree Days  
Heating Degree Days 37 33  
Month to date heating degree days 587 548  
Since 1 July heating degree days 3733 3658  
Cooling Degree Days 0 0  
Month to date cooling degree days 0 0  
Year to date cooling degree days 0 0  
Moisture  
Dew Point 12 °F    
Average Humidity 61    
Maximum Humidity 85    
Minimum Humidity 36    
Precipitation  
Precipitation 0.02 in 0.12 in 2.64 in (1958)
Month to date precipitation 3.34 1.78  
Year to date precipitation 6.58 5.14  
Sea Level Pressure  
Sea Level Pressure 29.72 in    
Wind  
Wind Speed 17 mph (WNW)    
Max Wind Speed 36 mph    
Max Gust Speed 49 mph    
Visibility 9 miles    
Events Snow    
T = Trace of Precipitation, MM = Missing Value Source: NWS Daily Summary

Daily Weather History Graph

Daily Weather History Graph

Search for Another Location

Airport or City:

Trip Planner

Search our weather history database for the weather conditions in past years. The results will help you decide how hot, cold, wet, or windy it might be!

Date:

Astronomy

Feb. 16, 2014 Rise Set
Actual Time 6:39 AM EST 5:17 PM EST
Civil Twilight 6:10 AM EST 5:46 PM EST
Nautical Twilight 5:37 AM EST 6:19 PM EST
Astronomical Twilight 5:05 AM EST 6:51 PM EST
Moon 7:14 PM EST (2/16) 7:04 AM EST (2/16)
Length of Visible Light 11h 36m
Length of Day
10h 38m
Full, 97% of the Moon is Illuminated
Feb 16
Full
Feb 22
Last Quarter
Mar 1
New
Mar 8
First Quarter
Mar 16
Full

Hourly Weather History & Observations

Time (EST) Temp. Windchill Dew Point Humidity Pressure Visibility Wind Dir Wind Speed Gust Speed Precip Events Conditions
12:54 AM 30.0 °F 17.5 °F 26.1 °F 85% 29.46 in 0.5 mi NW 19.6 mph 29.9 mph 0.00 in Snow Light Snow
12:57 AM 30.2 °F 17.1 °F 26.6 °F 86% 29.46 in 2.0 mi NW 21.9 mph 29.9 mph 0.00 in Snow Light Snow
1:46 AM 30.2 °F 17.4 °F 24.8 °F 80% 29.48 in 3.0 mi NW 20.7 mph 32.2 mph 0.00 in Snow Light Snow
1:54 AM 28.9 °F 16.1 °F 23.0 °F 78% 29.48 in 3.0 mi NW 19.6 mph 34.5 mph 0.00 in Snow Light Snow
2:07 AM 28.4 °F 14.7 °F 21.2 °F 74% 29.49 in 7.0 mi NW 21.9 mph 39.1 mph 0.00 in   Overcast
2:54 AM 28.0 °F 15.3 °F 17.1 °F 63% 29.52 in 7.0 mi NW 18.4 mph 32.2 mph 0.00 in   Mostly Cloudy
3:54 AM 25.0 °F 9.9 °F 12.9 °F 60% 29.58 in 10.0 mi WNW 23.0 mph 41.4 mph N/A   Partly Cloudy
4:54 AM 24.1 °F 9.0 °F 12.0 °F 60% 29.62 in 10.0 mi WNW 21.9 mph 32.2 mph N/A   Clear
5:54 AM 23.0 °F 9.6 °F 10.0 °F 58% 29.65 in 10.0 mi WNW 16.1 mph 24.2 mph N/A   Partly Cloudy
6:54 AM 23.0 °F 9.2 °F 10.0 °F 58% 29.69 in 10.0 mi WNW 17.3 mph 24.2 mph N/A   Partly Cloudy
7:54 AM 23.0 °F 8.7 °F 10.9 °F 60% 29.72 in 10.0 mi WNW 18.4 mph 25.3 mph N/A   Partly Cloudy
8:54 AM 25.0 °F 12.2 °F 10.0 °F 53% 29.73 in 10.0 mi WNW 16.1 mph 26.5 mph N/A   Clear
9:54 AM 27.0 °F 13.9 °F 10.0 °F 49% 29.75 in 10.0 mi WNW 18.4 mph 23.0 mph N/A   Partly Cloudy
10:54 AM 28.0 °F 16.1 °F 10.9 °F 49% 29.75 in 10.0 mi West 16.1 mph 23.0 mph N/A   Mostly Cloudy
11:54 AM 28.9 °F 15.8 °F 12.0 °F 49% 29.76 in 10.0 mi West 20.7 mph 27.6 mph N/A   Mostly Cloudy
12:54 PM 30.9 °F 19.4 °F 10.9 °F 43% 29.77 in 10.0 mi West 17.3 mph 24.2 mph N/A   Mostly Cloudy
1:54 PM 30.9 °F 19.4 °F 10.0 °F 42% 29.77 in 10.0 mi WNW 17.3 mph 24.2 mph N/A   Mostly Cloudy
2:54 PM 30.9 °F 19.4 °F 8.1 °F 38% 29.79 in 10.0 mi West 17.3 mph 24.2 mph N/A   Mostly Cloudy
3:54 PM 32.0 °F 20.8 °F 9.0 °F 38% 29.80 in 10.0 mi WNW 17.3 mph 21.9 mph N/A   Mostly Cloudy
4:54 PM 30.9 °F 21.2 °F 8.1 °F 38% 29.82 in 10.0 mi WNW 12.7 mph - N/A   Mostly Cloudy
5:54 PM 30.0 °F 21.1 °F 7.0 °F 38% 29.85 in 10.0 mi West 10.4 mph 23.0 mph N/A   Mostly Cloudy
6:54 PM 28.0 °F 20.0 °F 8.1 °F 43% 29.88 in 10.0 mi West 8.1 mph - N/A   Mostly Cloudy
7:54 PM 27.0 °F 13.9 °F 7.0 °F 43% 29.89 in 10.0 mi West 18.4 mph - N/A   Overcast
8:54 PM 26.1 °F 14.5 °F 7.0 °F 44% 29.91 in 10.0 mi West 13.8 mph 24.2 mph N/A   Overcast
9:54 PM 25.0 °F 14.2 °F 8.1 °F 49% 29.94 in 10.0 mi WNW 11.5 mph - N/A   Overcast
10:54 PM 24.1 °F 11.0 °F 7.0 °F 48% 29.95 in 10.0 mi WNW 16.1 mph 21.9 mph N/A   Overcast
11:54 PM 23.0 °F 11.1 °F 7.0 °F 50% 29.96 in 10.0 mi WNW 12.7 mph - N/A   Overcast